HAIYANG 2A

Last updated on Mon Sep 14 2020 06:43:38 GMT+0100 (British Summer Time)

1 37781U 11043A 20257.85326929 -.00000018 00000-0 25234-4 0 9995 2 37781 99.3180 263.9449 0001637 98.8466 261.2871 13.78720661456972
UTC large
Height (km)
Speed (km/s)
/
Latitude / Longitude
Inclination (degrees)
Orbital Period (minutes)
Azimuth
Elevation
Range (km)
Doppler Factor

Next 0 passes for location: London (51.5072 / 0.1276)

Sorry there are no passes over London.